Regional Weather Roundup
Issued by NWS

Home | Current Version | Previous Version | Text Only | Print | Product List | Glossary On
Versions: 1 2 3 4 5 6 7 8 9 10 11 12 13 14 15 16 17 18 19 20 21 22 23 24 25 26 27 28 29 30 31 32 33 34 35 36 37 38 39 40 41 42 43 44 45 46 47 48 49 50
000
ASUS46 KPQR 250210
RWROR

OREGON REGIONAL WEATHER ROUNDUP
NATIONAL WEATHER SERVICE PORTLAND OR
700 PM PDT FRI MAR 24 2017

NOTE: "FAIR" INDICATES FEW OR NO CLOUDS BELOW 12,000 FEET WITH
NO SIGNIFICANT WEATHER AND/OR OBSTRUCTIONS TO VISIBILITY.

ORZ001>013-250300-
NORTHWEST OREGON


CITY           SKY/WX    TMP DP  RH WIND       PRES   REMARKS
ASTORIA        CLOUDY    49  42  77 SW8       29.94R
NEWPORT        LGT RAIN  46  45  93 SW10G21   30.03S
PORTLAND       LGT RAIN  49  46  90 SW8       29.99R
VANCOUVER WA   CLOUDY    50  47  89 S3        29.98R
SCAPPOOSE      CLOUDY    50  45  83 S5        29.96R
HILLSBORO      CLOUDY    50  45  83 S12       29.96R
AURORA         RAIN      47  44  90 S7        30.01R FOG
MCMINNVILLE    MOCLDY    49  45  86 SW9       30.00R
SALEM          LGT RAIN  49  46  90 S8        29.99R
CORVALLIS      CLOUDY    50  46  87 CALM      30.02R
EUGENE         MOCLDY    51  46  83 S10       30.03R
$$

ORZ021-028-250300-
SOUTHWEST OREGON


CITY           SKY/WX    TMP DP  RH WIND       PRES   REMARKS
NORTH BEND     CLOUDY    52  48  87 SW13      30.06S
BROOKINGS      CLOUDY    51  50  96 S6        30.12R FOG
ROSEBURG       CLOUDY    51  47  86 VRB3      30.05R
SEXTON SUMMIT  FOG       37  36  96 S9        30.03R VSB<1/4 WCI  30
MEDFORD        MOCLDY    52  44  74 N3        30.06R
$$

ORZ014>016-041-250300-
COLUMBIA GORGE


CITY           SKY/WX    TMP DP  RH WIND       PRES   REMARKS
TROUTDALE      RAIN      49  45  86 SW10      30.00R FOG
THE DALLES     CLOUDY    55  41  59 NW15      29.93R
$$

ORZ029>031-041-044-049-050-061>064-502-503-505>511-250300-
EASTERN OREGON


CITY           SKY/WX    TMP DP  RH WIND       PRES   REMARKS
REDMOND        PTCLDY    46  30  53 S14       29.96R
BEND           CLEAR     45  32  61 SW15G21   29.96S
PRINEVILLE     CLEAR     46  32  57 SW15G22   29.96R
KLAMATH FALLS  MOCLDY    43  34  70 W8        30.04R
LAKEVIEW       MOCLDY    39  30  70 S18G25    30.06R WCI  30
HERMISTON      PTCLDY    53  43  68 CALM      29.93R
PENDLETON      PTCLDY    47  43  86 E5        29.94R
JOHN DAY       LGT RAIN  42  39  88 CALM      29.98R
MEACHAM        MOCLDY    40  36  86 CALM      29.94R
LA GRANDE      CLOUDY    46  37  71 W16G22    29.95R
BAKER CITY     CLOUDY    44  36  73 SE9       29.94S
BURNS          CLOUDY    44  30  57 SW12      29.98R
ROME             N/A     46  34  62 W13       30.02R
ONTARIO        CLOUDY    49  46  90 CALM      30.00S
$$



USA.gov is the U.S. government's official web portal to all federal, state and local government web resources and services.